| time (UTC) | temp F | wind direction | speed MPH | gust MPH | rain 1hr in | rain 24hr in | rain mn in | humidity % | barometer mb |
| 20260503004537 | 45 | 0 | 0.0 | 10.0 | 0.00 | 0.01 | 0.00 | 90 | 1011.9 |
| 20260503003043 | 46 | 0 | 1.0 | 10.0 | 0.00 | 0.01 | 0.00 | 90 | 1011.9 |
| 20260503001542 | 46 | 268 | 1.0 | 9.0 | 0.00 | 0.01 | 0.00 | 90 | 1011.9 |
| 20260503000041 | 46 | 0 | 0.0 | 6.0 | 0.00 | 0.01 | 0.00 | 90 | 1012.1 |
| 20260502234556 | 46 | 0 | 1.0 | 8.0 | 0.00 | 0.01 | 0.00 | 90 | 1012.0 |
| 20260502233039 | 46 | 270 | 1.0 | 7.0 | 0.00 | 0.01 | 0.00 | 90 | 1012.0 |
| 20260502231538 | 46 | 0 | 0.0 | 12.0 | 0.00 | 0.01 | 0.00 | 90 | 1012.1 |
| 20260502230044 | 46 | 0 | 1.0 | 7.0 | 0.00 | 0.01 | 0.00 | 89 | 1012.1 |
| 20260502224539 | 46 | 0 | 0.0 | 10.0 | 0.00 | 0.01 | 0.00 | 89 | 1012.1 |
| 20260502223040 | 46 | 257 | 0.0 | 0.0 | 0.00 | 0.01 | 0.00 | 89 | 1012.1 |
| 20260502221541 | 46 | 0 | 0.0 | 3.0 | 0.00 | 0.01 | 0.00 | 89 | 1012.1 |
| 20260502220038 | 46 | 0 | 0.0 | 4.0 | 0.00 | 0.01 | 0.00 | 89 | 1011.9 |
| 20260502214542 | 46 | 0 | 0.0 | 0.0 | 0.00 | 0.01 | 0.01 | 88 | 1011.9 |
| 20260502213042 | 46 | 0 | 0.0 | 1.0 | 0.00 | 0.01 | 0.01 | 87 | 1011.9 |
| 20260502211542 | 47 | 0 | 0.0 | 7.0 | 0.00 | 0.01 | 0.01 | 85 | 1012.0 |
| 20260502210040 | 47 | 0 | 1.0 | 9.0 | 0.00 | 0.01 | 0.01 | 85 | 1012.1 |
| 20260502204538 | 48 | 282 | 2.0 | 12.0 | 0.00 | 0.01 | 0.01 | 83 | 1012.0 |
| 20260502203036 | 49 | 0 | 1.0 | 9.0 | 0.00 | 0.01 | 0.01 | 83 | 1012.0 |
| 20260502201542 | 49 | 277 | 1.0 | 8.0 | 0.00 | 0.01 | 0.01 | 83 | 1011.9 |
| 20260502200042 | 50 | 0 | 0.0 | 3.0 | 0.00 | 0.01 | 0.01 | 81 | 1011.8 |
| 20260502194541 | 50 | 0 | 0.0 | 4.0 | 0.00 | 0.01 | 0.01 | 80 | 1011.7 |
| 20260502193044 | 51 | 299 | 0.0 | 7.0 | 0.00 | 0.01 | 0.01 | 79 | 1011.4 |
| 20260502191544 | 51 | 0 | 0.0 | 2.0 | 0.00 | 0.01 | 0.01 | 77 | 1011.4 |
| 20260502190037 | 51 | 0 | 0.0 | 5.0 | 0.00 | 0.01 | 0.01 | 78 | 1011.3 |
| 20260502184554 | 52 | 0 | 0.0 | 3.0 | 0.00 | 0.01 | 0.01 | 78 | 1011.4 |
| 20260502183040 | 52 | 0 | 0.0 | 0.0 | 0.00 | 0.01 | 0.01 | 76 | 1011.3 |
| 20260502181540 | 53 | 0 | 0.0 | 7.0 | 0.00 | 0.01 | 0.01 | 73 | 1011.2 |
| 20260502163043 | 53 | 0 | 0.0 | 0.0 | 0.00 | 0.01 | 0.01 | 72 | 1011.2 |
| 20260502161541 | 53 | 0 | 0.0 | 5.0 | 0.00 | 0.01 | 0.01 | 72 | 1011.3 |
| 20260502151538 | 55 | 0 | 0.0 | 3.0 | 0.00 | 0.01 | 0.01 | 70 | 1011.6 |
| 20260502123048 | 54 | 0 | 1.0 | 7.0 | 0.00 | 0.01 | 0.01 | 76 | 1012.8 |
| 20260502121544 | 52 | 0 | 0.0 | 0.0 | 0.00 | 0.01 | 0.01 | 81 | 1012.7 |
| 20260502114539 | 52 | 0 | 0.0 | 0.0 | 0.00 | 0.01 | 0.01 | 82 | 1013.0 |
| 20260502113039 | 51 | 0 | 0.0 | 3.0 | 0.00 | 0.01 | 0.01 | 83 | 1012.9 |
| 20260502111554 | 51 | 0 | 0.0 | 0.0 | 0.00 | 0.01 | 0.01 | 88 | 1012.7 |
| 20260502110040 | 50 | 0 | 0.0 | 0.0 | 0.00 | 0.01 | 0.01 | 87 | 1012.6 |
| 20260502104540 | 50 | 0 | 0.0 | 0.0 | 0.00 | 0.01 | 0.01 | 89 | 1012.5 |
| 20260502103052 | 50 | 0 | 0.0 | 0.0 | 0.01 | 0.01 | 0.01 | 87 | 1012.8 |
| 20260502101538 | 51 | 0 | 0.0 | 0.0 | 0.01 | 0.01 | 0.01 | 81 | 1013.3 |
| 20260502070040 | 53 | 0 | 0.0 | 0.0 | 0.00 | 0.00 | 0.00 | 59 | 1013.6 |
| 20260502064539 | 53 | 0 | 0.0 | 0.0 | 0.00 | 0.00 | 0.00 | 58 | 1013.6 |
| 20260502063039 | 53 | 0 | 0.0 | 6.0 | 0.00 | 0.00 | 0.00 | 58 | 1013.7 |
| 20260502061543 | 52 | 0 | 0.0 | 2.0 | 0.00 | 0.00 | 0.00 | 59 | 1013.6 |
| 20260502060040 | 52 | 0 | 0.0 | 5.0 | 0.00 | 0.00 | 0.00 | 58 | 1013.6 |
| 20260502054543 | 51 | 0 | 0.0 | 6.0 | 0.00 | 0.00 | 0.00 | 58 | 1013.7 |
| 20260502053039 | 50 | 0 | 0.0 | 1.0 | 0.00 | 0.00 | 0.00 | 58 | 1013.7 |
| 20260502051539 | 50 | 0 | 0.0 | 5.0 | 0.00 | 0.00 | 0.00 | 59 | 1013.9 |
| 20260502050042 | 49 | 0 | 0.0 | 0.0 | 0.00 | 0.00 | 0.00 | 60 | 1014.0 |
| 20260502044541 | 48 | 0 | 0.0 | 6.0 | 0.00 | 0.00 | 0.00 | 61 | 1014.3 |
| 20260502043040 | 46 | 0 | 0.0 | 1.0 | 0.00 | 0.00 | 0.00 | 65 | 1014.4 |
| 20260502041540 | 45 | 0 | 0.0 | 3.0 | 0.00 | 0.00 | 0.00 | 67 | 1014.7 |
| 20260502040039 | 45 | 0 | 0.0 | 0.0 | 0.00 | 0.00 | 0.00 | 67 | 1014.7 |
| 20260502034542 | 45 | 0 | 0.0 | 2.0 | 0.00 | 0.00 | 0.00 | 66 | 1014.8 |
| 20260502033046 | 45 | 0 | 0.0 | 2.0 | 0.00 | 0.00 | 0.00 | 68 | 1015.1 |
| 20260502031539 | 45 | 0 | 0.0 | 0.0 | 0.00 | 0.00 | 0.00 | 67 | 1015.1 |
| 20260502030040 | 46 | 0 | 0.0 | 1.0 | 0.00 | 0.00 | 0.00 | 66 | 1015.1 |
| 20260502024537 | 48 | 0 | 0.0 | 4.0 | 0.00 | 0.00 | 0.00 | 63 | 1015.6 |
| 20260502023047 | 48 | 0 | 0.0 | 4.0 | 0.00 | 0.00 | 0.00 | 63 | 1015.6 |
| 20260502021541 | 48 | 93 | 0.0 | 6.0 | 0.00 | 0.00 | 0.00 | 64 | 1015.8 |
| 20260502020039 | 48 | 76 | 0.0 | 5.0 | 0.00 | 0.00 | 0.00 | 64 | 1016.0 |
| 20260502014544 | 49 | 0 | 0.0 | 7.0 | 0.00 | 0.00 | 0.00 | 64 | 1016.2 |
| 20260502013044 | 49 | 73 | 0.0 | 8.0 | 0.00 | 0.00 | 0.00 | 65 | 1016.4 |
| 20260502011543 | 49 | 65 | 1.0 | 6.0 | 0.00 | 0.00 | 0.00 | 65 | 1016.5 |
| 20260502010047 | 49 | 83 | 1.0 | 7.0 | 0.00 | 0.00 | 0.00 | 66 | 1016.8 |